This demonstration page uses our WeatherBlox Daily Observations layout. Learn more.

Left ArrowRight Arrow

39.08367, -84.50855

Hourly Observations for November 25, 2018

Temp ( °F °C ) Dew Point ( °F °C ) Humidity (%) Winds ( mph kmh ) Pressure ( in mb ) Visibility ( mi km ) Precip ( " mm )
12:05 am 00:05 Mostly Cloudy with Fog 38 3.3 38 3.3 100 100 Calm 29.85 1011 1 1 0.00 0.00
12:14 am 00:14 Mostly Cloudy with Fog 39 3.9 39 3.9 100 100 Calm 29.85 1011 0 0 0.00 0.00
12:53 am 00:53 Mostly Cloudy with Fog 39 3.9 38 3.3 96 96 Calm 29.85 1011 0 0 0.00 0.00
1:35 am 01:35 Mostly Cloudy with Fog 35 1.7 35 1.7 100 100 Calm 29.88 1012 0 0 0.00 0.00
1:53 am 01:53 Mostly Cloudy with Fog 35 1.7 35 1.7 100 100 Calm 29.86 1011 0 0 0.00 0.00
2:53 am 02:53 Mostly Cloudy with Fog 34 1.1 34 1.1 100 100 Calm 29.88 1012 0 0 0.00 0.00
3:53 am 03:53 Mostly Cloudy with Fog 33 0.6 33 0.6 100 100 Calm 29.88 1012 0 0 0.00 0.00
4:53 am 04:53 Mostly Cloudy with Fog 33 0.6 33 0.6 100 100 Calm 29.90 1013 0 0 0.00 0.00
5:53 am 05:53 Mostly Cloudy with Fog 34 1.1 34 1.1 100 100 SSW 3 6 29.91 1013 0 0 0.00 0.00
6:53 am 06:53 Mostly Cloudy with Fog 34 1.1 34 1.1 100 100 Calm 29.92 1013 0 0 0.00 0.00
7:53 am 07:53 Mostly Cloudy with Fog 34 1.1 34 1.1 100 100 Calm 29.92 1013 5 8 0.00 0.00
8:53 am 08:53 Mostly Cloudy with Fog 37 2.8 37 2.8 100 100 Calm 29.93 1014 5 8 0.00 0.00
9:53 am 09:53 Mostly Cloudy with Fog 40 4.4 40 4.4 100 100 Calm 29.93 1014 0 0 0.00 0.00
10:42 am 10:42 Cloudy with Fog 42 5.6 42 5.6 100 100 Calm 29.94 1014 1 1 0.00 0.00
10:53 am 10:53 Cloudy with Mist and Fog 43 6.1 43 6.1 100 100 Calm 29.93 1014 1 2 0.00 0.00
11:13 am 11:13 Cloudy with Mist and Fog 44 6.7 44 6.7 100 100 Calm 29.94 1014 3 5 0.00 0.00
11:24 am 11:24 Cloudy with Mist and Fog 44 6.7 44 6.7 100 100 Calm 29.94 1014 2 3 0.00 0.00
11:53 am 11:53 Cloudy with Mist and Fog 46 7.8 46 7.8 100 100 S 3 6 29.90 1013 3 5 0.00 0.00
12:53 pm 12:53 Cloudy with Mist and Fog 48 8.9 47 8.3 96 96 VRB 5 7 29.88 1012 5 8 0.00 0.00
1:32 pm 13:32 Partly Cloudy 51 10.6 48 8.9 89 89 Calm 29.88 1012 8 13 0.00 0.00
1:53 pm 13:53 Mostly Sunny 52 11.1 48 8.9 86 86 Calm 29.85 1011 10 16 0.00 0.00
2:53 pm 14:53 Sunny 57 13.9 49 9.4 74 74 S 5 7 29.81 1009 10 16 0.00 0.00
3:53 pm 15:53 Sunny 57 13.9 49 9.4 74 74 Calm 29.79 1009 10 16 0.00 0.00
4:53 pm 16:53 Sunny 56 13.3 45 7.2 67 67 SSE 6 9 29.76 1008 10 16 0.00 0.00
5:53 pm 17:53 Clear 55 12.8 44 6.7 67 67 ESE 5 7 29.71 1006 10 16 0.00 0.00
6:53 pm 18:53 Partly Cloudy 55 12.8 44 6.7 67 67 SSE 9 15 29.70 1006 10 16 0.00 0.00
7:53 pm 19:53 Mostly Cloudy 55 12.8 42 5.6 62 62 ESE 9 15 29.65 1004 10 16 0.00 0.00
8:53 pm 20:53 Cloudy 54 12.2 43 6.1 67 67 SE 7 11 29.61 1003 10 16 0.00 0.03
9:53 pm 21:53 Cloudy with Light Rain 54 12.2 44 6.7 69 69 SSE 12 19 29.57 1001 10 16 0.01 0.25
10:53 pm 22:53 Cloudy 53 11.7 45 7.2 74 74 SE 7 11 29.50 999 10 16 0.05 1.27
11:53 pm 23:53 Cloudy with Light Rain 52 11.1 45 7.2 77 77 S 13 20 29.48 998 7 11 0.03 0.76

Powered by AerisWeather